User: anonymous   Login
Location: Fort Wayne
(41.1310°N, 85.1290°W)
Time: 06:19:11
(UTC-04:00)
Language:

CZ-2C R/B - Orbit

View from above orbital plane
View from above orbital plane
View from above satellite
View from above satellite

Ground track
Ground track

The orbit data is extracted from the following two-line orbital elements,

1 36089U 09061B   17147.94052985 +.00000046 +00000-0 +22402-4 0  9998
2 36089 098.0517 150.6386 0083379 107.7833 308.9456 14.49661593398683
Epoch (UTC): 27 May 2017 22:34:21
Eccentricity: 0.0083379
inclination: 98.0517°
perigee height: 667 km
apogee height: 786 km
right ascension of ascending node: 150.6386°
argument of perigee: 107.7833°
revolutions per day: 14.49661593
mean anomaly at epoch: 308.9456°
orbit number at epoch: 39868

The dashed part of the orbit path shows where the satellite is in the earth's shadow,  

DLR